[[{"header":{"parameterUnit":"m.s-1","parameterCategory":1,"la1":30.2991,"la2":30.254,"lo1":-89.0895,"lo2":-89.0444,"dy":0.0017,"dx":0.0017,"nx":28,"ny":28,"refTime":"2023-08-04T03:00:00:Z","depth":0,"parameterNumber":2,"parameterNumberName":"U-component_of_WINDS"},"data":[0,0,0,0,0,0,0,0,0,0,0,0,0,0,0,0,0,0,0,0,0,0,0,0,0,0,0,0,0,0,0,0,0,0,0,0,0,0,0,0,0,0,0,0,0,0,0,0,0,0,0,0,0,0,0,0,0,0,1.4378,1.4378,0,1.4435,1.4435,1.4436,1.445,1.445,1.4449,1.4449,1.451,1.4512,1.4514,0,0,0,0,0,0,0,0,0,0,0,0,0,1.4286,1.4287,1.4378,1.4378,1.4379,1.4435,1.4435,1.4436,1.445,1.445,1.4449,1.4449,1.451,1.4512,1.4514,0,0,0,0,0,0,0,0,0,0,0,0,0,1.4333,1.4288,1.4378,1.4393,1.4395,1.4434,1.4435,1.4436,1.445,1.445,1.4449,1.4449,1.4509,1.4512,1.4515,1.4544,0,0,1.4524,1.4525,0,0,0,0,0,0,0,0,1.433,1.4336,1.439,1.4392,1.4394,1.4435,1.4425,1.4473,1.445,1.4429,1.4449,1.4448,1.4486,1.4491,1.4503,1.4547,1.455,1.4524,1.4526,1.4527,1.4528,0,0,0,0,0,0,0,1.4327,1.4334,1.44,1.4391,1.4393,1.4398,1.4404,1.4434,1.446,1.4431,1.4432,1.4439,1.4487,1.45,1.4504,1.4551,1.4524,1.4527,1.4528,1.453,1.4625,1.4626,0,0,0,0,0,0,1.432,1.4331,1.4399,1.4402,1.436,1.44,1.4407,1.4422,1.446,1.4465,1.4439,1.4439,1.4495,1.4501,1.4506,1.4545,1.4527,1.453,1.4532,1.4625,1.4625,1.4626,0,0,0,0,0,0,1.4318,1.4326,1.4396,1.4367,1.4376,1.4402,1.4419,1.4424,1.4436,1.4466,1.4471,1.4447,1.4495,1.4502,1.4535,1.4547,1.4531,1.4534,1.4624,1.4625,1.4626,1.4622,0,0,0,0,0,0,1.4315,1.4325,1.4336,1.4367,1.4378,1.4423,1.442,1.4425,1.4441,1.4442,1.4475,1.448,1.4495,1.4531,1.4538,1.4551,1.4536,1.4623,1.4624,1.4626,1.4621,1.4623,1.4624,0,0,0,0,0,1.4312,1.4332,1.4336,1.4344,1.4391,1.4423,1.443,1.4446,1.4442,1.4454,1.4473,1.4479,1.4545,1.4534,1.4542,1.4557,1.4622,1.4624,1.4625,1.462,1.4622,1.4624,0,0,0,0,0,0,1.4302,1.4337,1.4341,1.4372,1.4394,1.4425,1.444,1.4447,1.4472,1.4472,1.4492,1.4499,1.4531,1.4547,1.4534,1.4589,1.4584,1.4587,1.4577,1.4579,1.4581,1.4576,1.4539,0,0,0,0,0,1.4303,1.4326,1.4355,1.4379,1.4391,1.4413,1.4428,1.4439,1.4464,1.4473,1.4495,1.452,1.4547,1.4564,1.459,1.4624,1.4632,1.4638,1.4639,1.464,1.4644,1.4665,1.4668,1.4632,1.4632,1.4632,0,0,1.4306,1.4328,1.4341,1.4378,1.4397,1.4421,1.4421,1.4446,1.4465,1.4478,1.451,1.4527,1.4556,1.459,1.4607,1.4605,1.4656,1.4643,1.4643,1.4646,1.4667,1.4671,1.4674,1.4633,1.4633,1.4633,0,0,1.4325,1.4342,1.4365,1.4385,1.4413,1.4429,1.4434,1.4465,1.4476,1.4509,1.452,1.4543,1.4588,1.4609,1.4625,1.4654,1.4661,1.4662,1.467,1.4691,1.4694,1.4697,1.4709,1.4712,1.4665,1.4665,1.4665,0,1.4325,1.436,1.4377,1.4402,1.4419,1.4431,1.4456,1.4474,1.451,1.4522,1.4519,1.4577,1.4598,1.4638,1.4645,1.4657,1.4666,1.4658,1.4692,1.4695,1.4698,1.4709,1.4714,1.4665,1.4665,1.4665,1.4665,0,1.4361,1.4385,1.4401,1.4435,1.4454,1.4479,1.45,1.4518,1.4527,1.4544,1.4578,1.4603,1.4636,1.4646,1.4655,1.4688,1.4687,1.4688,1.4683,1.4701,1.4712,1.4717,1.4665,1.4665,1.4665,1.4665,0,0,1.4373,1.4417,1.4422,1.4439,1.4472,1.4493,1.4519,1.455,1.4565,1.459,1.4614,1.4653,1.4655,1.4674,1.4686,1.4704,1.4728,1.4704,1.4705,1.4708,1.4768,1.4767,1.4772,1.4732,1.4733,1.4734,1.4766,0,1.4396,1.4442,1.4459,1.4498,1.4522,1.4535,1.4559,1.4583,1.4599,1.4624,1.4642,1.467,1.467,1.4681,1.47,1.4721,1.474,1.4719,1.4757,1.4758,1.475,1.4778,1.4777,1.4806,1.477,1.4771,1.4772,0,1.4429,1.4454,1.4495,1.4528,1.4539,1.4559,1.459,1.4613,1.4641,1.4652,1.4674,1.4686,1.4716,1.471,1.4753,1.4738,1.4755,1.4768,1.4769,1.4774,1.4766,1.4785,1.4815,1.482,1.4778,1.4778,1.4777,0,1.4435,1.448,1.4511,1.4525,1.4563,1.4577,1.4594,1.4622,1.464,1.4668,1.468,1.4711,1.4728,1.4753,1.4774,1.4766,1.4816,1.481,1.4827,1.4827,1.4837,1.4837,1.4872,1.4847,1.4846,1.4846,1.4846,0,1.446,1.4485,1.4515,1.4534,1.4563,1.4583,1.4612,1.463,1.4655,1.4679,1.4692,1.4715,1.474,1.4767,1.4783,1.4818,1.4825,1.4837,1.4841,1.4836,1.4835,1.4848,1.4847,1.4848,1.4847,1.4847,1.4847,0,1.4472,1.4492,1.4528,1.4561,1.457,1.4591,1.4621,1.4641,1.4658,1.4689,1.4698,1.4726,1.4758,1.4781,1.4822,1.4834,1.4872,1.4875,1.4862,1.4864,1.488,1.4879,1.4926,1.4934,1.4902,1.4902,1.4902,0,1.4486,1.4506,1.4542,1.4559,1.4576,1.4603,1.4622,1.4643,1.4662,1.4698,1.4714,1.4747,1.4775,1.4827,1.4852,1.4884,1.489,1.4904,1.4895,1.489,1.4892,1.4891,1.4894,1.4905,1.4906,1.4906,1.4906,0,1.4511,1.452,1.4547,1.4577,1.46,1.4625,1.465,1.4664,1.469,1.4712,1.4744,1.4766,1.4809,1.4843,1.4878,1.4897,1.4907,1.4909,1.4915,1.491,1.4902,1.4909,1.4867,1.4908,1.4908,1.4907,1.4907,1.4907,1.4525,1.4544,1.4573,1.4603,1.4624,1.4649,1.467,1.469,1.4718,1.4754,1.4765,1.48,1.4831,1.4879,1.4899,1.4928,1.4927,1.4935,1.4938,1.494,1.494,1.4897,1.4934,1.4934,1.4934,1.4934,1.4934,0,1.4551,1.4571,1.4598,1.4634,1.4658,1.4664,1.4693,1.4713,1.4743,1.4771,1.4798,1.4837,1.487,1.4899,1.4934,1.4952,1.4957,1.496,1.4959,1.4964,1.4938,1.493,1.4955,1.4955,1.4955,1.4955,1.4955,1.4955,1.4568,1.4601,1.4614,1.4659,1.4679,1.4713,1.473,1.4753,1.4775,1.4818,1.4845,1.4863,1.4892,1.4929,1.4961,1.4969,1.4982,1.4984,1.4993,1.4968,1.4966,1.4963,1.4956,1.4986,1.4986,1.5017,1.5017,1.5017]},{"header":{"parameterUnit":"m.s-1","parameterCategory":1,"la1":30.2991,"la2":30.254,"lo1":-89.0895,"lo2":-89.0444,"dy":0.0017,"dx":0.0017,"nx":28,"ny":28,"refTime":"2023-08-04T03:00:00:Z","depth":0,"parameterNumber":3,"parameterNumberName":"V-component_of_WINDS"},"data":[0,0,0,0,0,0,0,0,0,0,0,0,0,0,0,0,0,0,0,0,0,0,0,0,0,0,0,0,0,0,0,0,0,0,0,0,0,0,0,0,0,0,0,0,0,0,0,0,0,0,0,0,0,0,0,0,0,0,0.5036,0.5037,0,0.5075,0.5076,0.5076,0.5043,0.5042,0.5041,0.5039,0.508,0.5082,0.5085,0,0,0,0,0,0,0,0,0,0,0,0,0,0.4931,0.4933,0.5036,0.5037,0.5037,0.5075,0.5076,0.5076,0.5044,0.5042,0.504,0.5039,0.5079,0.5082,0.5085,0,0,0,0,0,0,0,0,0,0,0,0,0,0.4974,0.4934,0.5036,0.5025,0.5025,0.5075,0.5076,0.5077,0.5044,0.5042,0.504,0.5038,0.5078,0.5082,0.5085,0.5149,0,0,0.5096,0.5098,0,0,0,0,0,0,0,0,0.4972,0.4978,0.5026,0.5026,0.5026,0.5052,0.5054,0.5101,0.5044,0.5037,0.5039,0.5037,0.5073,0.5077,0.5088,0.5151,0.5153,0.5097,0.5099,0.51,0.5101,0,0,0,0,0,0,0,0.4969,0.4976,0.5052,0.5027,0.5027,0.5018,0.5022,0.5063,0.5066,0.5037,0.5035,0.504,0.5072,0.5085,0.5089,0.5153,0.5097,0.51,0.5102,0.5103,0.5265,0.5267,0,0,0,0,0,0,0.4967,0.4974,0.5051,0.5053,0.4993,0.5022,0.5026,0.5046,0.5065,0.5066,0.5042,0.5038,0.508,0.5085,0.5091,0.5163,0.51,0.5104,0.5106,0.5263,0.5265,0.5268,0,0,0,0,0,0,0.4965,0.4974,0.5049,0.5013,0.5022,0.5026,0.5048,0.5048,0.5061,0.5069,0.5069,0.5055,0.5079,0.5086,0.5134,0.5164,0.5105,0.5109,0.526,0.5264,0.5267,0.531,0,0,0,0,0,0,0.4962,0.4974,0.4999,0.5014,0.5024,0.5092,0.505,0.505,0.5067,0.5063,0.5081,0.5082,0.5078,0.5128,0.5137,0.5168,0.5111,0.5258,0.5262,0.5266,0.5306,0.5314,0.5321,0,0,0,0,0,0.4959,0.5011,0.5,0.501,0.5055,0.5094,0.51,0.5093,0.507,0.5094,0.5098,0.5081,0.516,0.5134,0.5143,0.5175,0.5256,0.5261,0.5265,0.5302,0.5313,0.5321,0,0,0,0,0,0,0.5,0.5012,0.5001,0.5059,0.5076,0.5088,0.5119,0.5105,0.5129,0.5124,0.5116,0.512,0.517,0.5178,0.5149,0.5235,0.5204,0.5211,0.5228,0.5238,0.5246,0.5242,0.5114,0,0,0,0,0,0.5016,0.5047,0.5056,0.5106,0.5115,0.5116,0.5133,0.5126,0.5143,0.515,0.5158,0.5175,0.5202,0.5221,0.5248,0.5307,0.5309,0.5334,0.5341,0.5348,0.5353,0.5382,0.5392,0.5284,0.5284,0.5284,0,0,0.505,0.506,0.508,0.5115,0.5127,0.5157,0.5122,0.5157,0.5179,0.5155,0.52,0.5206,0.5224,0.5277,0.5301,0.5285,0.5384,0.5354,0.5359,0.5361,0.5388,0.5398,0.5407,0.5287,0.5286,0.5286,0,0,0.5125,0.5138,0.5179,0.5191,0.5208,0.5208,0.5218,0.5232,0.5234,0.5279,0.526,0.5287,0.5336,0.5348,0.5361,0.5438,0.5422,0.5447,0.5487,0.5515,0.5523,0.5531,0.5555,0.5564,0.5453,0.5453,0.5453,0,0.5164,0.521,0.5202,0.5237,0.5252,0.523,0.527,0.5283,0.5309,0.5319,0.5301,0.5359,0.537,0.5424,0.5442,0.5454,0.5463,0.5444,0.5523,0.553,0.5537,0.556,0.5569,0.5456,0.5455,0.5455,0.5455,0,0.5256,0.5288,0.5319,0.5342,0.536,0.5399,0.5395,0.5414,0.5405,0.5406,0.545,0.5462,0.5489,0.5502,0.5495,0.5553,0.5542,0.5524,0.5491,0.555,0.5571,0.558,0.5459,0.5458,0.5458,0.5457,0,0,0.536,0.5375,0.5387,0.5395,0.5412,0.5436,0.5472,0.5497,0.5512,0.553,0.5558,0.5599,0.5581,0.5595,0.5589,0.5614,0.5669,0.5591,0.5592,0.5603,0.573,0.5742,0.5753,0.5659,0.5661,0.5662,0.5728,0,0.5434,0.5495,0.5487,0.5545,0.5573,0.5551,0.5582,0.5594,0.5596,0.5619,0.562,0.5648,0.5624,0.5631,0.5655,0.5657,0.5694,0.5653,0.5683,0.5684,0.5677,0.5764,0.5778,0.584,0.5736,0.5738,0.5739,0,0.5528,0.5547,0.5607,0.5616,0.5627,0.5655,0.5675,0.5698,0.5711,0.571,0.5724,0.5713,0.5747,0.5715,0.576,0.5732,0.5744,0.5747,0.5749,0.575,0.5714,0.5765,0.5859,0.5868,0.5753,0.5752,0.5751,0,0.5594,0.5635,0.5675,0.5683,0.5695,0.5714,0.572,0.5731,0.5745,0.5763,0.5772,0.5794,0.5806,0.5823,0.5817,0.5794,0.5862,0.5831,0.5861,0.5861,0.5875,0.5873,0.597,0.5887,0.5887,0.5887,0.5886,0,0.5675,0.5712,0.5704,0.5728,0.5768,0.5758,0.5798,0.5802,0.5811,0.5835,0.5819,0.5841,0.5833,0.5855,0.5851,0.5887,0.5894,0.5892,0.589,0.5892,0.5892,0.5899,0.5893,0.5889,0.5888,0.5888,0.5888,0,0.5755,0.5751,0.5793,0.5799,0.5802,0.5831,0.5836,0.5858,0.5857,0.5888,0.5894,0.5893,0.5918,0.5913,0.5942,0.5939,0.5983,0.5977,0.5978,0.5976,0.6005,0.6001,0.6107,0.6119,0.6031,0.6032,0.6032,0,0.5806,0.5834,0.5842,0.5856,0.5863,0.5886,0.59,0.5891,0.5905,0.592,0.594,0.5963,0.5981,0.6021,0.6022,0.6043,0.6035,0.6071,0.6038,0.6038,0.6032,0.6029,0.6031,0.6077,0.6078,0.6079,0.6079,0,0.5896,0.5892,0.5912,0.593,0.5946,0.596,0.5973,0.5986,0.5977,0.5994,0.6018,0.6032,0.6059,0.6081,0.6099,0.6104,0.609,0.609,0.6097,0.6098,0.6096,0.6094,0.5993,0.6087,0.6086,0.6086,0.6085,0.6085,0.5961,0.5983,0.5991,0.6012,0.602,0.6032,0.6052,0.6052,0.6072,0.6092,0.6086,0.6112,0.6122,0.6145,0.6152,0.6172,0.6159,0.6171,0.6173,0.6176,0.6177,0.6095,0.6176,0.6176,0.6176,0.6175,0.6175,0,0.6047,0.6051,0.6071,0.6087,0.6103,0.6088,0.61,0.6115,0.6138,0.6148,0.6164,0.619,0.6211,0.6213,0.6232,0.6247,0.6241,0.6252,0.625,0.6251,0.619,0.618,0.6257,0.6257,0.6257,0.6257,0.6257,0.6257,0.6094,0.6128,0.6125,0.6162,0.6166,0.619,0.6198,0.6208,0.6215,0.6245,0.6261,0.6262,0.6268,0.6286,0.6304,0.6304,0.631,0.6324,0.6321,0.6264,0.6255,0.6248,0.6238,0.6326,0.6326,0.6379,0.638,0.638]}]]